• In Belgium
  • List of Countries
  • For 7 days
  • Water Temperature
  • Satellite Maps
  • Weather Map
  • Weather Widgets
  • user-avatar
    Login

    Hourly Weather Batina

    Today, 19 August, Saturday

    Time Temperature Precipitation Wind Pressure Humidity
    00:00 +28°C° 0 mm 1 mps 674 mmHg 34%
    01:00 +28°C° 0 mm 1 mps 673 mmHg 34%
    02:00 +27°C° 0 mm 1 mps 673 mmHg 34%
    03:00 +27°C° 0 mm 2 mps 673 mmHg 34%
    04:00 +27°C° 0 mm 2 mps 673 mmHg 33%
    05:00 +27°C° 0 mm 2 mps 674 mmHg 32%
    06:00 +28°C° 0 mm 2 mps 674 mmHg 30%
    07:00 +29°C° 0 mm 2 mps 674 mmHg 27%
    08:00 +30°C° 0 mm 3 mps 675 mmHg 24%
    09:00 +33°C° 0 mm 3 mps 675 mmHg 22%
    10:00 +34°C° 0 mm 4 mps 675 mmHg 20%
    11:00 +35°C° 0 mm 4 mps 675 mmHg 19%
    12:00 +35°C° 0 mm 5 mps 675 mmHg 18%
    13:00 +36°C° 0 mm 4 mps 675 mmHg 18%
    14:00 +36°C° 0 mm 4 mps 675 mmHg 17%
    15:00 +36°C° 0 mm 4 mps 675 mmHg 17%
    16:00 +36°C° 0 mm 4 mps 675 mmHg 19%
    17:00 +35°C° 0 mm 5 mps 674 mmHg 21%
    18:00 +34°C° 0 mm 5 mps 674 mmHg 23%
    19:00 +33°C° 0 mm 4 mps 674 mmHg 27%
    20:00 +32°C° 0 mm 4 mps 675 mmHg 31%
    21:00 +30°C° 0 mm 3 mps 675 mmHg 35%
    22:00 +29°C° 0 mm 3 mps 675 mmHg 37%
    23:00 +28°C° 0 mm 3 mps 675 mmHg 38%

    Tomorrow, 20 August, Sunday

    Time Temperature Precipitation Wind Pressure Humidity
    00:00 +28°C° 0 mm 2 mps 675 mmHg 40%
    01:00 +27°C° 0 mm 2 mps 674 mmHg 41%
    02:00 +27°C° 0 mm 2 mps 674 mmHg 42%
    03:00 +26°C° 0 mm 2 mps 674 mmHg 43%
    04:00 +26°C° 0 mm 2 mps 674 mmHg 43%
    05:00 +26°C° 0 mm 2 mps 674 mmHg 43%
    06:00 +26°C° 0 mm 2 mps 674 mmHg 43%
    07:00 +27°C° 0 mm 2 mps 675 mmHg 38%
    08:00 +29°C° 0 mm 2 mps 675 mmHg 33%
    09:00 +30°C° 0 mm 2 mps 676 mmHg 29%
    10:00 +31°C° 0 mm 2 mps 676 mmHg 26%
    11:00 +33°C° 0 mm 3 mps 676 mmHg 24%
    12:00 +34°C° 0 mm 3 mps 676 mmHg 22%
    13:00 +34°C° 0 mm 4 mps 675 mmHg 22%
    14:00 +35°C° 0 mm 4 mps 675 mmHg 22%
    15:00 +35°C° 0 mm 4 mps 675 mmHg 22%
    16:00 +34°C° 0 mm 5 mps 675 mmHg 25%
    17:00 +33°C° 0 mm 5 mps 675 mmHg 28%
    18:00 +32°C° 0 mm 5 mps 674 mmHg 32%
    19:00 +29°C° 0 mm 5 mps 675 mmHg 36%
    20:00 +28°C° 0 mm 4 mps 675 mmHg 39%
    21:00 +27°C° 0 mm 4 mps 675 mmHg 43%
    22:00 +26°C° 0 mm 3 mps 675 mmHg 44%
    23:00 +26°C° 0 mm 3 mps 675 mmHg 45%

    Day after tomorrow, 21 August, Monday

    Time Temperature Precipitation Wind Pressure Humidity
    00:00 +25°C° 0 mm 3 mps 674 mmHg 46%
    01:00 +25°C° 0 mm 3 mps 674 mmHg 47%
    02:00 +24°C° 0 mm 2 mps 674 mmHg 48%
    03:00 +24°C° 0 mm 2 mps 673 mmHg 48%
    04:00 +24°C° 0 mm 2 mps 674 mmHg 48%
    05:00 +23°C° 0 mm 1 mps 674 mmHg 48%
    06:00 +23°C° 0 mm 1 mps 674 mmHg 48%
    07:00 +25°C° 0 mm 1 mps 674 mmHg 44%
    08:00 +26°C° 0 mm 2 mps 675 mmHg 39%
    09:00 +27°C° 0 mm 2 mps 675 mmHg 35%
    10:00 +28°C° 0 mm 2 mps 675 mmHg 32%
    11:00 +30°C° 0 mm 3 mps 675 mmHg 29%
    12:00 +31°C° 0 mm 3 mps 675 mmHg 26%
    13:00 +32°C° 0 mm 4 mps 675 mmHg 25%
    14:00 +33°C° 0 mm 4 mps 674 mmHg 23%
    15:00 +33°C° 0 mm 5 mps 674 mmHg 22%
    16:00 +32°C° 0 mm 5 mps 674 mmHg 23%
    17:00 +30°C° 0 mm 5 mps 674 mmHg 23%
    18:00 +29°C° 0 mm 5 mps 673 mmHg 24%
    19:00 +28°C° 0 mm 4 mps 674 mmHg 27%
    20:00 +27°C° 0 mm 4 mps 674 mmHg 29%
    21:00 +26°C° 0 mm 3 mps 674 mmHg 32%
    22:00 +25°C° 0 mm 3 mps 674 mmHg 34%
    23:00 +25°C° 0 mm 2 mps 673 mmHg 36%

    22 August, Tuesday

    Time Temperature Precipitation Wind Pressure Humidity
    00:00 +24°C° 0 mm 2 mps 673 mmHg 38%
    01:00 +24°C° 0 mm 2 mps 673 mmHg 40%
    02:00 +23°C° 0 mm 1 mps 673 mmHg 42%
    03:00 +23°C° 0 mm 1 mps 672 mmHg 44%
    04:00 +23°C° 0 mm 1 mps 673 mmHg 44%
    05:00 +23°C° 0 mm 1 mps 673 mmHg 44%
    06:00 +21°C° 0 mm 0 mps 673 mmHg 44%
    07:00 +24°C° 0 mm 1 mps 674 mmHg 40%
    08:00 +26°C° 0 mm 1 mps 674 mmHg 36%
    09:00 +27°C° 0 mm 2 mps 675 mmHg 32%
    10:00 +28°C° 0 mm 2 mps 675 mmHg 30%
    11:00 +29°C° 0 mm 3 mps 675 mmHg 27%
    12:00 +31°C° 0 mm 3 mps 675 mmHg 24%
    13:00 +31°C° 0 mm 3 mps 674 mmHg 23%
    14:00 +31°C° 0 mm 3 mps 674 mmHg 22%
    15:00 +33°C° 0 mm 3 mps 674 mmHg 22%
    16:00 +31°C° 0 mm 3 mps 674 mmHg 22%
    17:00 +32°C° 0 mm 4 mps 673 mmHg 23%
    18:00 +30°C° 0 mm 4 mps 673 mmHg 24%
    19:00 +29°C° 0 mm 3 mps 673 mmHg 27%
    20:00 +28°C° 0 mm 3 mps 673 mmHg 30%
    21:00 +27°C° 0 mm 2 mps 673 mmHg 33%
    22:00 +27°C° 0 mm 2 mps 673 mmHg 35%
    23:00 +26°C° 0 mm 1 mps 673 mmHg 37%

    23 August, Wednesday

    Time Temperature Precipitation Wind Pressure Humidity
    00:00 +26°C° 0 mm 1 mps 673 mmHg 39%
    01:00 +25°C° 0 mm 1 mps 672 mmHg 41%
    02:00 +24°C° 0 mm 1 mps 672 mmHg 43%
    03:00 +24°C° 0 mm 1 mps 672 mmHg 46%
    04:00 +24°C° 0 mm 1 mps 672 mmHg 46%
    05:00 +24°C° 0 mm 1 mps 673 mmHg 46%
    06:00 +24°C° 0 mm 1 mps 673 mmHg 47%
    07:00 +25°C° 0 mm 2 mps 674 mmHg 43%
    08:00 +27°C° 0 mm 3 mps 674 mmHg 39%
    09:00 +28°C° 0 mm 3 mps 675 mmHg 35%
    10:00 +29°C° 0 mm 3 mps 675 mmHg 32%
    11:00 +30°C° 0 mm 4 mps 675 mmHg 30%
    12:00 +32°C° 0 mm 4 mps 675 mmHg 28%
    13:00 +32°C° 0 mm 4 mps 674 mmHg 27%
    14:00 +33°C° 0 mm 4 mps 674 mmHg 26%
    15:00 +33°C° 0 mm 4 mps 674 mmHg 25%
    16:00 +33°C° 0 mm 4 mps 674 mmHg 26%
    17:00 +32°C° 0 mm 4 mps 674 mmHg 27%
    18:00 +32°C° 0 mm 4 mps 674 mmHg 28%
    19:00 +30°C° 0 mm 3 mps 674 mmHg 31%
    20:00 +29°C° 0 mm 3 mps 674 mmHg 34%
    21:00 +28°C° 0 mm 2 mps 674 mmHg 37%
    22:00 +27°C° 0 mm 2 mps 674 mmHg 39%
    23:00 +27°C° 0 mm 1 mps 673 mmHg 41%

    24 August, Thursday

    Time Temperature Precipitation Wind Pressure Humidity
    00:00 +26°C° 0 mm 1 mps 673 mmHg 43%
    01:00 +26°C° 0 mm 1 mps 673 mmHg 45%
    02:00 +25°C° 0 mm 1 mps 673 mmHg 47%
    03:00 +25°C° 0 mm 2 mps 673 mmHg 49%
    04:00 +25°C° 0 mm 2 mps 673 mmHg 49%
    05:00 +25°C° 0 mm 2 mps 673 mmHg 50%
    06:00 +24°C° 0 mm 2 mps 674 mmHg 51%
    07:00 +26°C° 0 mm 2 mps 674 mmHg 47%
    08:00 +27°C° 0 mm 3 mps 675 mmHg 42%
    09:00 +28°C° 0 mm 3 mps 675 mmHg 38%
    10:00 +29°C° 0 mm 3 mps 675 mmHg 35%
    11:00 +30°C° 0 mm 3 mps 675 mmHg 32%
    12:00 +31°C° 0 mm 3 mps 675 mmHg 28%
    13:00 +33°C° 0 mm 3 mps 675 mmHg 27%
    14:00 +33°C° 0 mm 3 mps 675 mmHg 26%
    15:00 +34°C° 0 mm 3 mps 675 mmHg 25%
    16:00 +33°C° 0 mm 3 mps 674 mmHg 26%
    17:00 +33°C° 0 mm 3 mps 674 mmHg 27%
    18:00 +31°C° 0 mm 3 mps 674 mmHg 28%
    19:00 +30°C° 0 mm 3 mps 674 mmHg 30%
    20:00 +29°C° 0 mm 2 mps 674 mmHg 33%
    21:00 +28°C° 0 mm 2 mps 674 mmHg 35%
    22:00 +28°C° 0 mm 2 mps 674 mmHg 37%
    23:00 +27°C° 0 mm 2 mps 674 mmHg 39%
    Show more